Weather History for Wide Awake Field Ascension Island, Ascension Island

Change the Weather History Date:

Tuesday, February 5, 2013

  Actual Average Record
Temperature  
Mean Temperature 80 °F -  
Max Temperature 87 °F - - ()
Min Temperature 74 °F - - ()
Cooling Degree Days 16    
Growing Degree Days 30 (Base 50)    
Moisture  
Dew Point 73 °F    
Average Humidity 77    
Maximum Humidity 83    
Minimum Humidity 56    
Precipitation  
Precipitation 0.00 in - - ()
Sea Level Pressure  
Sea Level Pressure 29.88 in    
Wind  
Wind Speed 10 mph ()    
Max Wind Speed 20 mph    
Max Gust Speed 30 mph    
Visibility 8.0 miles    
Events      
T = Trace of Precipitation, MM = Missing Value Source: Averaged Metar Reports

Daily Weather History Graph

Daily Weather History Graph

Search for Another Location

Airport:

Trip Planner

Search our weather history database for the weather conditions in past years. The results will help you decide how hot, cold, wet, or windy it might be!

Date:

Astronomy

Feb. 05, 2013 Rise Set
Actual Time 6:59 AM GMT 7:24 PM GMT
Civil Twilight 6:37 AM GMT 7:45 PM GMT
Nautical Twilight 6:11 AM GMT 8:11 PM GMT
Astronomical Twilight 5:46 AM GMT 8:36 PM GMT
Moon 2:03 AM GMT (2/5) 2:56 PM GMT (2/5)
Length of Visible Light 13h 08m
Length of Day
12h 25m
Waning Crescent, 29% of the Moon is Illuminated
Feb 5
Waning Crescent
Feb 10
New
Feb 17
First Quarter
Feb 25
Full
Mar 4
Last Quarter

Hourly Weather History & Observations

Time (GMT) Temp. Heat Index Dew Point Humidity Pressure Visibility Wind Dir Wind Speed Gust Speed Precip Events Conditions
12:00 AM 77 °F - 71 °F 76% 29.89 in 19 mi ESE 12.7 mph - -   Scattered Clouds
1:50 AM 77.0 °F - 71.6 °F 83% 29.89 in 6.2 mi ESE 3.5 mph - N/A   Partly Cloudy
2:50 AM 75.2 °F - 69.8 °F 83% 29.86 in 6.2 mi SSE 1.2 mph - N/A   Partly Cloudy
3:50 AM 75.2 °F - 69.8 °F 83% 29.86 in 6.2 mi ESE 5.8 mph - N/A   Partly Cloudy
4:50 AM 75.2 °F - 69.8 °F 83% 29.86 in 6.2 mi NE 3.5 mph - N/A   Partly Cloudy
5:50 AM 75.2 °F - 69.8 °F 83% 29.86 in 6.2 mi East 3.5 mph - N/A   Partly Cloudy
6:00 AM 75 °F - 70 °F 79% 29.86 in 19 mi East 3.5 mph - -   Scattered Clouds
8:50 AM 80.6 °F 85.4 °F 73.4 °F 79% 29.92 in 6.2 mi ESE 11.5 mph - N/A   Partly Cloudy
11:50 AM 84.2 °F 92.3 °F 75.2 °F 74% 29.92 in 6.2 mi SE 17.3 mph - N/A   Partly Cloudy
12:00 PM 84 °F - 71 °F 56% 29.90 in 25 mi SE 17.3 mph - -   Scattered Clouds
12:50 PM 86.0 °F 95.1 °F 75.2 °F 70% 29.89 in 6.2 mi SE 18.4 mph - N/A   Partly Cloudy
1:50 PM 86.0 °F 95.1 °F 75.2 °F 70% 29.86 in 6.2 mi SE 19.6 mph - N/A   Partly Cloudy
2:50 PM 86.0 °F 95.1 °F 75.2 °F 70% 29.86 in 6.2 mi SE 18.4 mph 29.9 mph N/A   Partly Cloudy
3:50 PM 86.0 °F 95.1 °F 75.2 °F 70% 29.83 in 6.2 mi SE 18.4 mph - N/A   Partly Cloudy
5:50 PM 82.4 °F 89.5 °F 75.2 °F 79% 29.83 in 6.2 mi ESE 17.3 mph - N/A   Partly Cloudy
6:00 PM 83 °F - 72 °F 61% 29.84 in 19 mi ESE 17.3 mph - -   Scattered Clouds
6:50 PM 80.6 °F 84.6 °F 71.6 °F 74% 29.86 in 6.2 mi ESE 17.3 mph - N/A   Partly Cloudy
7:50 PM 78.8 °F - 71.6 °F 78% 29.89 in 6.2 mi ESE 15.0 mph - N/A   Partly Cloudy
8:50 PM 78.8 °F - 73.4 °F 83% 29.89 in 6.2 mi ESE 16.1 mph - N/A   Partly Cloudy
9:50 PM 78.8 °F - 73.4 °F 83% 29.92 in 6.2 mi ESE 18.4 mph - N/A   Partly Cloudy
10:50 PM 78.8 °F - 73.4 °F 83% 29.92 in 6.2 mi ESE 16.1 mph - N/A   Partly Cloudy
11:50 PM 78.8 °F - 73.4 °F 83% 29.92 in 6.2 mi SE 17.3 mph - N/A   Partly Cloudy